Home > Weather > Preveza > Past weeks

Flag for Greece Past Weather in Preveza, Greece — Yesterday and Last 2 Weeks

Now
79 °F

Sunny.


Feels Like: 79 °F
Forecast: 62 / 77 °F
Wind: 10 mph from West

Location: Aktion Airport

Current Time: May 30, 2016 at 1:50:26 PM

Latest Report: May 30, 2016 at 1:20 PM


Visibility: 10 mi

Pressure: 29.95 "Hg

Humidity: 42%

Dew Point: 54 °F

Location of PrevezaLocation

Past Weather in Preveza — Graph

°F

Preveza Temperature Yesterday

Maximum temperature yesterday: 82 °F (at 1:50 PM)
Minimum temperature yesterday: 61 °F (at 4:50 AM)
Average temperature yesterday: 72 °F

High & Low Weather Summary for the Past Weeks

 TemperatureHumidityPressure
High82 °F (May 29, 1:50 PM)100% (May 18, 3:50 AM)30.09 "Hg (May 18, 3:50 AM)
Low54 °F (May 22, 4:50 AM)34% (May 30, 11:50 AM)29.68 "Hg (May 21, 5:50 AM)
Average67 °F69%29.95 "Hg
* Reported May 15 11:20 AM — May 30 11:50 AM, Preveza, Weather by CustomWeather, © 2016

Note: Actual official high and low records may vary slightly from our data, if they occured in-between our weather recording intervals... More about our weather records

Advertising

Preveza Weather History for the Previous 24 Hours

Scroll right to see more
 ConditionsComfort  
Time TempWeatherWind HumidityBarometerVisibility
11:50 AM
Mon, May 30
81 °FSunny.5 mph34%29.95 "Hg10 mi
11:20 AM79 °FSunny.3 mph45%29.95 "Hg10 mi
10:50 AM77 °FSunny.5 mph54%29.92 "Hg10 mi
9:50 AM72 °FSunny.6 mph69%29.92 "Hg10 mi
9:20 AM72 °FSunny.7 mph69%29.92 "Hg10 mi
8:50 AM72 °FSunny.8 mph69%29.92 "Hg10 mi
7:50 AM70 °FSunny.7 mph73%29.92 "Hg10 mi
7:20 AM68 °FSunny.6 mph78%29.89 "Hg10 mi
6:50 AM64 °FClear.7 mph83%29.89 "Hg10 mi
6:20 AM66 °FClear.6 mph68%29.89 "Hg10 mi
5:50 AM64 °FClear.5 mph73%29.89 "Hg10 mi
3:50 AM64 °FClear.5 mph83%29.92 "Hg10 mi
2:50 AM66 °FClear.6 mph83%29.92 "Hg10 mi
1:50 AM66 °FClear.6 mph73%29.95 "Hg10 mi
12:50 AM66 °FClear.No wind78%29.95 "Hg10 mi
11:50 PM
Sun, May 29
64 °FClear.No wind83%29.95 "Hg10 mi
10:50 PM66 °FClear.No wind83%29.95 "Hg10 mi
9:50 PM68 °FSunny.No wind78%29.92 "Hg10 mi
8:50 PM72 °FSunny.2 mph65%29.92 "Hg10 mi
8:20 PM72 °FSunny.5 mph65%29.92 "Hg10 mi
7:50 PM73 °FSunny.6 mph61%29.95 "Hg10 mi
7:20 PM75 °FSunny.7 mph54%29.92 "Hg10 mi
6:50 PM75 °FSunny.7 mph54%29.92 "Hg10 mi
6:20 PM77 °FSunny.8 mph51%29.92 "Hg10 mi
5:50 PM79 °FSunny.7 mph45%29.92 "Hg10 mi
5:20 PM79 °FSunny.10 mph48%29.95 "Hg10 mi
4:50 PM77 °FSunny.8 mph51%29.95 "Hg10 mi
4:20 PM81 °FSunny.7 mph42%29.95 "Hg10 mi
3:50 PM82 °FSunny.8 mph35%29.95 "Hg10 mi
3:20 PM82 °FSunny.6 mph35%29.95 "Hg10 mi
2:50 PM82 °FSunny.6 mph35%29.95 "Hg10 mi
2:20 PM81 °FSunny.7 mph42%29.95 "Hg10 mi
1:50 PM82 °FSunny.6 mph37%29.95 "Hg10 mi
1:20 PM81 °FSunny.7 mph45%29.95 "Hg10 mi
Weather by CustomWeather, © 2016

See weather overviewHow to use our weather pages